sat.trackr.live / text

‹ back to catalog

STARLINK-30348

NORAD 57712 · 2023-129Q

PAYLOAD ACTIVE UNKNOWN

§ Identity

Operator
Country
US
Launch date
2023-08-27
Launch site
AFETR
Launch vehicle
Mass (kg)
RCS (m²)

Purposes: comms

External: N2YO · Heavens-Above · Gunter

§ Orbital elements

Epoch: 2026-09-20T19:36:29.299392Z

Period
94.27 min
Inclination
43.0007°
Eccentricity
0.0001410
Mean motion
15.27590911 rev/d
Perigee alt
482.0 km
Apogee alt
484.0 km
Semi-major
6,861.2 km
B*
5.3334e-4
RAAN
96.0225°
Arg perigee
269.4782°
Mean anomaly
90.5908°
Rev number
17,052

§ Raw data

STARLINK-303481 57712U 23129Q   26263.81700578  .00014448  00000+0  53334-3 0  99952 57712  43.0007  96.0225 0001410 269.4782  90.5908 15.27590911170522

JSON: /api/v1/satellites/57712 · /tle

For live sub-satellite position, see the globe view (requires WebGL).

§ Visibility from observer

Set your observer location to see the next 7 days of passes ≥ 10°. The values pass through the URL so the page stays shareable.

No JS? Fill the form by hand. The geolocation button needs JavaScript.